This demonstration page uses our WeatherBlox Daily Observations layout. Learn more.

Left ArrowRight Arrow

Hourly Observations for January 10, 2015

Temp ( °F °C ) Dew Point ( °F °C ) Humidity (%) Winds ( mph kmh ) Pressure ( in mb ) Visibility ( mi km ) Precip ( " mm )
12:15 am 00:15 Clear 1 -17 -11 -24 55 55 W 8 13 30.59 1036 10 16.0934 N/A
12:36 am 00:36 Clear 1 -17 -13 -25 50 50 W 7 11 30.62 1037 10 16.0934 N/A
12:55 am 00:55 Clear 1 -17 -13 -25 50 50 W 6 9 30.62 1037 10 16.0934 N/A
1:15 am 01:15 Clear 0 -18 -13 -25 54 54 W 7 11 30.62 1037 10 16.0934 N/A
1:35 am 01:35 Clear 0 -18 -13 -25 54 54 W 8 13 30.62 1037 10 16.0934 N/A
1:55 am 01:55 Clear 0 -18 -13 -25 54 54 W 8 13 30.62 1037 10 16.0934 N/A
2:15 am 02:15 Clear -2 -19 -13 -25 59 59 WSW 6 9 30.62 1037 10 16.0934 N/A
2:35 am 02:35 Clear -2 -19 -13 -25 59 59 WSW 6 9 30.62 1037 10 16.0934 N/A
2:55 am 02:55 Clear -2 -19 -13 -25 59 59 WSW 6 9 30.62 1037 10 16.0934 N/A
3:15 am 03:15 Clear -2 -19 -13 -25 59 59 SW 5 7 30.62 1037 10 16.0934 N/A
3:35 am 03:35 Clear 0 -18 -11 -24 60 60 SSW 3 6 30.62 1037 10 16.0934 N/A
3:55 am 03:55 Clear 0 -18 -11 -24 60 60 SSW 5 7 30.62 1037 10 16.0934 N/A
4:15 am 04:15 Clear -2 -19 -13 -25 59 59 SSW 5 7 30.62 1037 10 16.0934 N/A
4:35 am 04:35 Clear -2 -19 -11 -24 65 65 SSW 6 9 30.62 1037 10 16.0934 N/A
4:55 am 04:55 Clear -2 -19 -11 -24 65 65 SSW 6 9 30.62 1037 10 16.0934 N/A
5:15 am 05:15 Clear -2 -19 -11 -24 65 65 SSW 5 7 30.62 1037 10 16.0934 N/A
5:35 am 05:35 Clear -2 -19 -13 -25 59 59 S 6 9 30.62 1037 10 16.0934 N/A
5:55 am 05:55 Clear -2 -19 -11 -24 65 65 SSW 7 11 30.62 1037 10 16.0934 N/A
6:15 am 06:15 Clear -2 -19 -11 -24 65 65 SSW 6 9 30.62 1037 10 16.0934 N/A
6:36 am 06:36 Clear -2 -19 -11 -24 65 65 SSW 6 9 30.62 1037 10 16.0934 N/A
6:55 am 06:55 Clear -2 -19 -11 -24 65 65 SSW 7 11 30.62 1037 10 16.0934 N/A
7:15 am 07:15 Clear 0 -18 -11 -24 60 60 SSW 6 9 30.62 1037 10 16.0934 N/A
7:35 am 07:35 Clear 0 -18 -11 -24 60 60 SSW 6 9 30.62 1037 10 16.0934 N/A
7:55 am 07:55 Clear 0 -18 -11 -24 60 60 SSW 6 9 30.62 1037 10 16.0934 N/A
8:16 am 08:16 Sunny -2 -19 -11 -24 65 65 SSW 6 9 30.65 1038 10 16.0934 N/A
8:35 am 08:35 Sunny 0 -18 -11 -24 60 60 SSW 6 9 30.65 1038 10 16.0934 N/A
9:15 am 09:15 Sunny 3 -16 -9 -23 55 55 SSW 6 9 30.65 1038 10 16.0934 N/A
9:35 am 09:35 Sunny 5 -15 -9 -23 51 51 SSW 8 13 30.62 1037 10 16.0934 N/A
9:55 am 09:55 Sunny 7 -14 -8 -22 51 51 SSW 7 11 30.62 1037 10 16.0934 N/A
10:15 am 10:15 Sunny 7 -14 -8 -22 51 51 SSW 8 13 30.62 1037 10 16.0934 N/A
10:35 am 10:35 Sunny 9 -13 -8 -22 47 47 SSW 8 13 30.62 1037 10 16.0934 N/A
10:55 am 10:55 Sunny 10 -12 -6 -21 47 47 SSW 8 13 30.62 1037 10 16.0934 N/A
11:15 am 11:15 Sunny 10 -12 -6 -21 47 47 S 12 19 30.62 1037 10 16.0934 N/A
11:35 am 11:35 Sunny 12 -11 -6 -21 44 44 SW 12 19 30.62 1037 10 16.0934 N/A
11:55 am 11:55 Sunny 12 -11 -6 -21 44 44 SSW 14 22 30.62 1037 10 16.0934 N/A
12:15 pm 12:15 Sunny 14 -10 -6 -21 41 41 SSW 12 19 30.59 1036 10 16.0934 N/A
12:35 pm 12:35 Sunny 14 -10 -6 -21 41 41 SSW 9 15 30.59 1036 10 16.0934 N/A
12:56 pm 12:56 Sunny 16 -9 -6 -21 37 37 SSW 12 19 30.59 1036 10 16.0934 N/A
1:15 pm 13:15 Sunny 16 -9 -4 -20 41 41 SSW 8 13 30.53 1034 10 16.0934 N/A
1:35 pm 13:35 Sunny 16 -9 -6 -21 37 37 S 10 17 30.53 1034 10 16.0934 N/A
1:55 pm 13:55 Sunny 18 -8 -4 -20 38 38 S 10 17 30.53 1034 10 16.0934 N/A
2:15 pm 14:15 Sunny 18 -8 -4 -20 38 38 SSW 9 15 30.5 1033 10 16.0934 N/A
2:36 pm 14:36 Sunny 19 -7 -4 -20 35 35 S 9 15 30.5 1033 10 16.0934 N/A
2:55 pm 14:55 Sunny 19 -7 -4 -20 35 35 S 10 17 30.5 1033 10 16.0934 N/A
3:15 pm 15:15 Sunny 19 -7 -6 -21 32 32 S 9 15 30.5 1033 10 16.0934 N/A
3:35 pm 15:35 Sunny 19 -7 -6 -21 32 32 S 10 17 30.48 1032 10 16.0934 N/A
3:55 pm 15:55 Sunny 21 -6 -6 -21 30 30 S 9 15 30.48 1032 10 16.0934 N/A
4:16 pm 16:16 Sunny 21 -6 -6 -21 30 30 S 10 17 30.45 1031 10 16.0934 N/A
4:35 pm 16:35 Sunny 21 -6 -6 -21 30 30 S 9 15 30.48 1032 10 16.0934 N/A
4:55 pm 16:55 Sunny 21 -6 -4 -20 32 32 S 8 13 30.48 1032 10 16.0934 N/A
5:15 pm 17:15 Sunny 21 -6 -2 -19 35 35 S 6 9 30.48 1032 10 16.0934 N/A
5:35 pm 17:35 Sunny 19 -7 -4 -20 35 35 S 7 11 30.48 1032 10 16.0934 N/A
5:55 pm 17:55 Clear 19 -7 -2 -19 38 38 S 6 9 30.48 1032 10 16.0934 N/A
6:15 pm 18:15 Clear 19 -7 -2 -19 38 38 S 7 11 30.48 1032 10 16.0934 N/A
6:35 pm 18:35 Clear 19 -7 -2 -19 38 38 S 8 13 30.48 1032 10 16.0934 N/A
6:55 pm 18:55 Clear 19 -7 -2 -19 38 38 S 9 15 30.48 1032 10 16.0934 N/A
7:15 pm 19:15 Clear 19 -7 -2 -19 38 38 S 9 15 30.45 1031 10 16.0934 N/A
7:35 pm 19:35 Partly Cloudy 19 -7 -2 -19 38 38 S 12 19 30.45 1031 10 16.0934 N/A
7:56 pm 19:56 Mostly Cloudy 21 -6 -2 -19 35 35 S 9 15 30.45 1031 10 16.0934 N/A
8:15 pm 20:15 Mostly Cloudy 21 -6 -2 -19 35 35 S 7 11 30.48 1032 10 16.0934 N/A
8:35 pm 20:35 Partly Cloudy 21 -6 0 -18 38 38 S 9 15 30.48 1032 10 16.0934 N/A
8:55 pm 20:55 Partly Cloudy 21 -6 0 -18 38 38 S 13 20 30.45 1031 10 16.0934 N/A
9:15 pm 21:15 Partly Cloudy 21 -6 0 -18 38 38 S 10 17 30.45 1031 10 16.0934 N/A
9:36 pm 21:36 Mostly Cloudy 21 -6 0 -18 38 38 S 12 19 30.45 1031 10 16.0934 N/A
9:55 pm 21:55 Mostly Cloudy 21 -6 0 -18 38 38 S 13 20 30.45 1031 10 16.0934 N/A
10:15 pm 22:15 Mostly Cloudy 23 -5 0 -18 36 36 SSW 12 19 30.45 1031 10 16.0934 N/A
10:35 pm 22:35 Cloudy 23 -5 1 -17 39 39 S 10 17 30.45 1031 10 16.0934 N/A
10:55 pm 22:55 Mostly Cloudy 23 -5 0 -18 36 36 S 10 17 30.45 1031 10 16.0934 N/A
11:16 pm 23:16 Partly Cloudy 23 -5 1 -17 39 39 S 10 17 30.45 1031 10 16.0934 N/A
11:35 pm 23:35 Partly Cloudy 23 -5 1 -17 39 39 SSW 7 11 30.45 1031 10 16.0934 N/A
11:55 pm 23:55 Mostly Cloudy 23 -5 1 -17 39 39 SSW 7 11 30.45 1031 10 16.0934 N/A

Powered by AerisWeather